[[{"header":{"parameterUnit":"m.s-1","parameterCategory":1,"la1":30.2991,"la2":30.254,"lo1":-89.0895,"lo2":-89.0444,"dx":0.0017,"dy":0.0017,"nx":28,"ny":28,"refTime":"2023-02-06T15:00:00:Z","depth":0,"parameterNumber":2,"parameterNumberName":"U-component_of_WINDS"},"data":[0,0,0,0,0,0,0,0,0,0,0,0,0,0,0,0,0,0,0,0,0,0,0,0,0,0,0,0,0,0,0,0,0,0,0,0,0,0,0,0,0,0,0,0,0,0,0,0,0,0,0,0,0,0,0,0,0,0,-4.3607,-4.3609,0,-4.3732,-4.3733,-4.3734,-4.373,-4.3728,-4.3727,-4.3725,-4.3852,-4.3857,-4.3862,0,0,0,0,0,0,0,0,0,0,0,0,0,-4.3367,-4.3372,-4.3607,-4.3609,-4.361,-4.3731,-4.3733,-4.3735,-4.373,-4.3728,-4.3726,-4.3724,-4.3851,-4.3857,-4.3863,0,0,0,0,0,0,0,0,0,0,0,0,0,-4.348,-4.3373,-4.3607,-4.3623,-4.3625,-4.3731,-4.3733,-4.3735,-4.3731,-4.3728,-4.3726,-4.3723,-4.3849,-4.3856,-4.3863,-4.3961,0,0,-4.3886,-4.389,0,0,0,0,0,0,0,0,-4.3473,-4.3488,-4.3619,-4.3622,-4.3625,-4.3713,-4.3695,-4.3811,-4.3732,-4.3691,-4.3725,-4.3722,-4.3808,-4.3819,-4.3848,-4.3967,-4.3973,-4.3887,-4.3892,-4.3895,-4.3897,0,0,0,0,0,0,0,-4.3465,-4.3483,-4.3656,-4.3621,-4.3625,-4.3624,-4.3637,-4.3717,-4.3762,-4.3694,-4.3694,-4.3709,-4.3809,-4.384,-4.3851,-4.3975,-4.3887,-4.3893,-4.3898,-4.3901,-4.4182,-4.4185,0,0,0,0,0,0,-4.3454,-4.3477,-4.3652,-4.366,-4.3541,-4.363,-4.3645,-4.3687,-4.3762,-4.377,-4.3711,-4.3708,-4.3829,-4.3842,-4.3855,-4.3975,-4.3895,-4.3902,-4.3906,-4.4179,-4.4183,-4.4186,0,0,0,0,0,0,-4.3449,-4.347,-4.3647,-4.3568,-4.3591,-4.3637,-4.3685,-4.3691,-4.3722,-4.3774,-4.3782,-4.3735,-4.3827,-4.3845,-4.3935,-4.3979,-4.3905,-4.3912,-4.4176,-4.4181,-4.4185,-4.4215,0,0,0,0,0,0,-4.3442,-4.3468,-4.3505,-4.3569,-4.3595,-4.3725,-4.3687,-4.3695,-4.3735,-4.3733,-4.3798,-4.3807,-4.3827,-4.3924,-4.3943,-4.3988,-4.3918,-4.4172,-4.4178,-4.4183,-4.421,-4.422,-4.4228,0,0,0,0,0,-4.3434,-4.3509,-4.3507,-4.3528,-4.3643,-4.3728,-4.3742,-4.3764,-4.3739,-4.3777,-4.3811,-4.3805,-4.3972,-4.3933,-4.3954,-4.4003,-4.4169,-4.4176,-4.4183,-4.4206,-4.4218,-4.4228,0,0,0,0,0,0,-4.3448,-4.3517,-4.3516,-4.3614,-4.3665,-4.3727,-4.3775,-4.3775,-4.3834,-4.383,-4.3854,-4.3869,-4.3959,-4.3991,-4.3946,-4.4102,-4.4068,-4.4079,-4.4078,-4.409,-4.4099,-4.4088,-4.3924,0,0,0,0,0,-4.3463,-4.3526,-4.3583,-4.3664,-4.369,-4.3728,-4.3766,-4.3778,-4.3832,-4.3853,-4.3893,-4.3946,-4.401,-4.4052,-4.4114,-4.4215,-4.423,-4.4259,-4.4268,-4.4275,-4.4284,-4.4341,-4.4354,-4.4208,-4.4208,-4.4208,0,0,-4.3493,-4.3539,-4.3577,-4.3668,-4.3709,-4.3774,-4.3746,-4.3816,-4.3864,-4.3864,-4.3951,-4.3984,-4.4044,-4.414,-4.4185,-4.4169,-4.4328,-4.4284,-4.4289,-4.4294,-4.4349,-4.4363,-4.4375,-4.4213,-4.4212,-4.4211,0,0,-4.3582,-4.3623,-4.3695,-4.3737,-4.38,-4.3825,-4.3843,-4.3905,-4.3926,-4.4015,-4.4016,-4.4075,-4.4185,-4.4228,-4.4264,-4.4372,-4.4369,-4.4392,-4.4438,-4.4493,-4.4504,-4.4515,-4.4553,-4.4566,-4.4401,-4.4401,-4.4401,0,-4.3612,-4.371,-4.3732,-4.3803,-4.3843,-4.3846,-4.392,-4.3959,-4.4039,-4.4067,-4.4048,-4.4187,-4.4228,-4.4335,-4.4362,-4.4391,-4.4412,-4.4383,-4.4501,-4.4512,-4.4522,-4.4558,-4.4572,-4.4403,-4.4403,-4.4403,-4.4403,0,-4.3744,-4.3812,-4.3863,-4.394,-4.3986,-4.4057,-4.4091,-4.4135,-4.4144,-4.4172,-4.4263,-4.4313,-4.4385,-4.4412,-4.4421,-4.4521,-4.4509,-4.4496,-4.4461,-4.4537,-4.4572,-4.4586,-4.4407,-4.4406,-4.4405,-4.4405,0,0,-4.3843,-4.3933,-4.3951,-4.3986,-4.4057,-4.411,-4.4182,-4.4253,-4.4291,-4.4347,-4.4408,-4.4502,-4.4491,-4.4532,-4.4547,-4.4595,-4.4677,-4.4576,-4.4577,-4.4592,-4.479,-4.4798,-4.4814,-4.4676,-4.4679,-4.4682,-4.4785,0,-4.3938,-4.4066,-4.4089,-4.4201,-4.4264,-4.427,-4.4333,-4.4383,-4.4412,-4.447,-4.4502,-4.4568,-4.4548,-4.4573,-4.4622,-4.4657,-4.4717,-4.465,-4.4734,-4.4736,-4.4717,-4.4833,-4.4842,-4.4936,-4.4798,-4.4801,-4.4802,0,-4.4066,-4.4125,-4.4243,-4.4306,-4.4333,-4.4389,-4.4457,-4.4513,-4.4571,-4.4588,-4.4636,-4.4645,-4.4721,-4.4685,-4.4791,-4.4744,-4.4781,-4.4803,-4.4808,-4.4815,-4.4773,-4.4842,-4.4967,-4.4981,-4.4824,-4.4822,-4.4821,0,-4.4125,-4.4235,-4.432,-4.435,-4.4425,-4.4465,-4.4498,-4.4554,-4.4595,-4.4655,-4.4683,-4.4751,-4.4787,-4.484,-4.4868,-4.4839,-4.4972,-4.4938,-4.4988,-4.4988,-4.5014,-4.5012,-4.5146,-4.504,-4.504,-4.504,-4.5039,0,-4.4228,-4.43,-4.4347,-4.4399,-4.448,-4.4507,-4.4587,-4.462,-4.467,-4.4729,-4.4738,-4.4794,-4.4828,-4.4889,-4.4911,-4.4995,-4.5012,-4.5029,-4.5033,-4.5027,-4.5025,-4.5049,-4.5043,-4.5044,-4.5043,-4.5042,-4.5041,0,-4.4307,-4.4342,-4.4435,-4.4499,-4.4517,-4.4574,-4.463,-4.4681,-4.471,-4.4785,-4.4804,-4.485,-4.4922,-4.4956,-4.5045,-4.5061,-4.5156,-4.5157,-4.5136,-4.5138,-4.5186,-4.5181,-4.534,-4.5362,-4.5242,-4.5243,-4.5244,0,-4.437,-4.4425,-4.4496,-4.4537,-4.4571,-4.4636,-4.4679,-4.4709,-4.4753,-4.4824,-4.4867,-4.4939,-4.4998,-4.5114,-4.5155,-4.5224,-4.5226,-4.5277,-4.5236,-4.5228,-4.5226,-4.5222,-4.5227,-4.5284,-4.5285,-4.5286,-4.5287,0,-4.4478,-4.4492,-4.4553,-4.4622,-4.4673,-4.4728,-4.4782,-4.4814,-4.4853,-4.4902,-4.4976,-4.5022,-4.5114,-4.5186,-4.5257,-4.5293,-4.5296,-4.53,-4.5315,-4.5308,-4.5293,-4.5301,-4.5155,-4.5295,-4.5294,-4.5294,-4.5293,-4.5293,-4.455,-4.4599,-4.4657,-4.4726,-4.477,-4.482,-4.4872,-4.4908,-4.497,-4.5047,-4.5061,-4.514,-4.5198,-4.5295,-4.5333,-4.5395,-4.5383,-4.5405,-4.5411,-4.5415,-4.5417,-4.5285,-4.5408,-4.5408,-4.5408,-4.5408,-4.5408,0,-4.4657,-4.4695,-4.4758,-4.4833,-4.4887,-4.4887,-4.4947,-4.4993,-4.5061,-4.5115,-4.5174,-4.5259,-4.533,-4.5378,-4.545,-4.549,-4.5494,-4.5508,-4.5504,-4.5513,-4.5424,-4.5403,-4.5504,-4.5504,-4.5504,-4.5504,-4.5504,-4.5504,-4.4719,-4.4803,-4.4825,-4.4932,-4.4969,-4.5046,-4.5081,-4.5128,-4.5171,-4.5266,-4.5324,-4.5355,-4.5408,-4.5483,-4.5548,-4.5561,-4.5586,-4.5601,-4.5613,-4.5529,-4.5519,-4.5509,-4.5489,-4.5606,-4.5606,-4.5696,-4.5696,-4.5697]},{"header":{"parameterUnit":"m.s-1","parameterCategory":1,"la1":30.2991,"la2":30.254,"lo1":-89.0895,"lo2":-89.0444,"dx":0.0017,"dy":0.0017,"nx":28,"ny":28,"refTime":"2023-02-06T15:00:00:Z","depth":0,"parameterNumber":3,"parameterNumberName":"V-component_of_WINDS"},"data":[0,0,0,0,0,0,0,0,0,0,0,0,0,0,0,0,0,0,0,0,0,0,0,0,0,0,0,0,0,0,0,0,0,0,0,0,0,0,0,0,0,0,0,0,0,0,0,0,0,0,0,0,0,0,0,0,0,0,2.0996,2.0997,0,2.1071,2.1072,2.1073,2.1116,2.1116,2.1117,2.1117,2.1193,2.1195,2.1196,0,0,0,0,0,0,0,0,0,0,0,0,0,2.0891,2.0893,2.0996,2.0997,2.0998,2.1071,2.1072,2.1073,2.1116,2.1116,2.1117,2.1117,2.1192,2.1194,2.1197,0,0,0,0,0,0,0,0,0,0,0,0,0,2.0948,2.0893,2.0996,2.1028,2.1032,2.1071,2.1072,2.1074,2.1116,2.1116,2.1117,2.1117,2.1191,2.1194,2.1197,2.1209,0,0,2.1205,2.1207,0,0,0,0,0,0,0,0,2.0945,2.0952,2.1023,2.1026,2.103,2.1085,2.1063,2.1119,2.1116,2.1084,2.1117,2.1117,2.1157,2.1162,2.1176,2.1213,2.1216,2.1206,2.1207,2.1209,2.1209,0,0,0,0,0,0,0,2.0941,2.0949,2.1026,2.1024,2.1028,2.1039,2.1048,2.1074,2.1118,2.1087,2.109,2.1099,2.1159,2.1173,2.1178,2.1217,2.1206,2.1208,2.121,2.1211,2.1271,2.1271,0,0,0,0,0,0,2.0932,2.0945,2.1023,2.1028,2.0987,2.1041,2.1051,2.1067,2.1118,2.1126,2.1098,2.11,2.1168,2.1175,2.1181,2.12,2.1209,2.1211,2.1213,2.1271,2.1271,2.1271,0,0,0,0,0,0,2.0929,2.0938,2.102,2.0988,2.0999,2.1043,2.1061,2.1068,2.1083,2.1126,2.1135,2.1105,2.1168,2.1177,2.1203,2.1204,2.1212,2.1215,2.1271,2.1271,2.1271,2.1239,0,0,0,0,0,0,2.0926,2.0937,2.0942,2.0988,2.1001,2.1041,2.1061,2.107,2.1087,2.1091,2.1135,2.1142,2.1169,2.1198,2.1205,2.1208,2.1217,2.1272,2.1271,2.1271,2.124,2.1237,2.1235,0,0,0,0,0,2.0922,2.0929,2.0942,2.0951,2.1007,2.104,2.1048,2.1079,2.1087,2.1093,2.1122,2.1141,2.1202,2.12,2.1209,2.1212,2.1272,2.1271,2.1271,2.1241,2.1238,2.1235,0,0,0,0,0,0,2.0881,2.0935,2.095,2.0972,2.1001,2.1048,2.1055,2.1075,2.1102,2.1104,2.1142,2.1152,2.1174,2.1196,2.1193,2.1228,2.1239,2.1241,2.1213,2.1211,2.1209,2.1203,2.122,0,0,0,0,0,2.0875,2.0897,2.0943,2.0958,2.0972,2.1011,2.1027,2.1049,2.1081,2.1093,2.1123,2.1154,2.118,2.1197,2.1223,2.1243,2.1254,2.125,2.1248,2.1246,2.1246,2.1261,2.126,2.1271,2.1271,2.1271,0,0,2.0861,2.0894,2.0905,2.0951,2.0976,2.0999,2.1021,2.1044,2.1062,2.1096,2.1123,2.1147,2.1183,2.1207,2.1219,2.1225,2.1246,2.1245,2.1243,2.1246,2.1261,2.126,2.1259,2.127,2.127,2.127,0,0,2.0849,2.0875,2.0892,2.0917,2.0956,2.0982,2.0986,2.103,2.1048,2.1075,2.1103,2.1124,2.1168,2.1194,2.1213,2.1213,2.1232,2.1221,2.1209,2.1223,2.1222,2.1221,2.1223,2.1223,2.1221,2.1221,2.1221,0,2.0828,2.0863,2.0897,2.0919,2.0939,2.0973,2.099,2.1013,2.1058,2.1072,2.1079,2.1137,2.1163,2.1194,2.1195,2.1208,2.1215,2.1216,2.1219,2.1219,2.1219,2.1221,2.1221,2.122,2.122,2.122,2.122,0,2.0836,2.086,2.0869,2.0913,2.0934,2.0953,2.0991,2.1008,2.1029,2.1054,2.1083,2.1117,2.1152,2.1161,2.1181,2.1196,2.1199,2.1212,2.1224,2.1216,2.1218,2.1219,2.1217,2.1218,2.1218,2.1219,0,0,2.0798,2.0863,2.0866,2.0887,2.0933,2.0953,2.0975,2.101,2.1025,2.1055,2.1075,2.1113,2.1126,2.1148,2.1171,2.1183,2.1183,2.1195,2.1196,2.1192,2.1203,2.1194,2.1194,2.1196,2.1196,2.1197,2.1201,0,2.0794,2.0835,2.0867,2.0896,2.092,2.0954,2.0973,2.1004,2.1029,2.1054,2.1082,2.1109,2.1123,2.1137,2.115,2.118,2.1186,2.118,2.1216,2.1217,2.1206,2.1195,2.1184,2.1187,2.1202,2.1202,2.1202,0,2.0793,2.0824,2.0856,2.0902,2.0913,2.093,2.0966,2.0989,2.1025,2.1043,2.1068,2.1092,2.1118,2.1128,2.1164,2.116,2.1176,2.1194,2.1194,2.1199,2.1209,2.12,2.1188,2.1189,2.1204,2.1204,2.1204,0,2.0765,2.0814,2.084,2.0857,2.0911,2.0922,2.0945,2.0982,2.1002,2.1034,2.1047,2.1081,2.1099,2.1125,2.1159,2.1163,2.1193,2.1204,2.1209,2.1208,2.1214,2.1213,2.1204,2.1223,2.1223,2.1223,2.1223,0,2.0757,2.0775,2.0828,2.0844,2.0866,2.0904,2.0925,2.0951,2.0984,2.1006,2.1037,2.1057,2.11,2.1126,2.1152,2.1179,2.1187,2.1203,2.121,2.12,2.1199,2.1212,2.1213,2.1223,2.1223,2.1223,2.1223,0,2.0728,2.0765,2.0795,2.0845,2.0858,2.0872,2.0915,2.0932,2.096,2.0988,2.0996,2.104,2.1072,2.1108,2.1152,2.117,2.1195,2.1205,2.1183,2.1187,2.119,2.119,2.1191,2.1193,2.1209,2.1209,2.1208,0,2.0721,2.0736,2.0788,2.0806,2.0828,2.0855,2.0876,2.0915,2.0935,2.0979,2.0992,2.1026,2.1056,2.1106,2.1142,2.1176,2.1187,2.1185,2.1192,2.1183,2.1188,2.1187,2.119,2.1183,2.1182,2.1182,2.1182,0,2.0705,2.0723,2.0752,2.0788,2.0812,2.0842,2.0874,2.0886,2.0931,2.0953,2.0986,2.101,2.1055,2.109,2.1129,2.1153,2.1175,2.1179,2.1183,2.1173,2.1161,2.1169,2.1179,2.1179,2.1179,2.118,2.118,2.118,2.0688,2.0704,2.0743,2.0775,2.0803,2.0832,2.0852,2.0883,2.0912,2.0952,2.0973,2.1007,2.1045,2.11,2.1124,2.1151,2.1158,2.1162,2.1164,2.1164,2.1162,2.1156,2.1158,2.1158,2.1159,2.1159,2.1159,0,2.0674,2.0702,2.0731,2.0775,2.08,2.082,2.0856,2.0876,2.0906,2.094,2.0969,2.1009,2.1043,2.1082,2.1119,2.1133,2.1145,2.1142,2.1142,2.1147,2.1153,2.1147,2.1132,2.1132,2.1132,2.1132,2.1132,2.1132,2.067,2.0699,2.0722,2.0765,2.0793,2.0827,2.0846,2.0874,2.0901,2.0944,2.0973,2.0999,2.1035,2.1076,2.1108,2.1119,2.1131,2.1126,2.1139,2.1144,2.1146,2.1148,2.1143,2.1128,2.1128,2.1131,2.1131,2.1131]}]]